When you browse on this site, cookies collect data to enhance your experience and personalize the content and advertising you see.
Visit our Privacy Policy to learn more. By continuing to use the site, you agree to this use of cookies and data.
  • En España
  • Lista de países
  • Para 7 días
  • Temperatura del agua
  • Mapa Satelital
  • El tiempo en el mapa
  • Informadores
  • user-avatar
    Iniciar sesión

    Tiempo cada hora Gvozdevicy

    Hoy, 27 Mayo, Lunes

    Tiempo Temperatura Precipitaciones Viento Presión Humedad
    00:00 +9°C° 0 mm 3 mps 739 mmHg 88%
    01:00 +9°C° 0 mm 3 mps 739 mmHg 90%
    02:00 +8°C° 0 mm 3 mps 739 mmHg 91%
    03:00 +8°C° 0 mm 4 mps 739 mmHg 90%
    04:00 +8°C° 0 mm 4 mps 739 mmHg 89%
    05:00 +10°C° 0 mm 4 mps 739 mmHg 88%
    06:00 +10°C° 0 mm 4 mps 739 mmHg 87%
    07:00 +11°C° 0 mm 4 mps 740 mmHg 86%
    08:00 +12°C° 0 mm 5 mps 740 mmHg 85%
    09:00 +14°C° 0 mm 5 mps 740 mmHg 80%
    10:00 +16°C° 0 mm 6 mps 740 mmHg 76%
    11:00 +19°C° 0 mm 6 mps 740 mmHg 71%
    12:00 +19°C° 0.2 mm 6 mps 741 mmHg 71%
    13:00 +20°C° 0.2 mm 6 mps 741 mmHg 71%
    14:00 +21°C° 0.2 mm 6 mps 741 mmHg 71%
    15:00 +20°C° 0.7 mm 5 mps 741 mmHg 75%
    16:00 +20°C° 0.7 mm 5 mps 741 mmHg 78%
    17:00 +20°C° 0.7 mm 4 mps 740 mmHg 82%
    18:00 +19°C° 0.3 mm 4 mps 741 mmHg 84%
    19:00 +18°C° 0.3 mm 3 mps 741 mmHg 86%
    20:00 +16°C° 0.3 mm 3 mps 741 mmHg 88%
    21:00 +16°C° 0 mm 3 mps 741 mmHg 89%
    22:00 +14°C° 0 mm 3 mps 741 mmHg 91%
    23:00 +13°C° 0 mm 3 mps 741 mmHg 93%

    Mañana, 28 Mayo, Martes

    Tiempo Temperatura Precipitaciones Viento Presión Humedad
    00:00 +13°C° 0 mm 3 mps 741 mmHg 93%
    01:00 +13°C° 0 mm 3 mps 742 mmHg 94%
    02:00 +13°C° 0 mm 3 mps 742 mmHg 95%
    03:00 +14°C° 0 mm 2 mps 742 mmHg 95%
    04:00 +14°C° 0 mm 2 mps 742 mmHg 95%
    05:00 +15°C° 0 mm 2 mps 742 mmHg 95%
    06:00 +17°C° 0 mm 3 mps 742 mmHg 91%
    07:00 +18°C° 0 mm 3 mps 742 mmHg 87%
    08:00 +20°C° 0 mm 4 mps 742 mmHg 83%
    09:00 +21°C° 0.2 mm 4 mps 742 mmHg 79%
    10:00 +22°C° 0.2 mm 5 mps 742 mmHg 76%
    11:00 +23°C° 0.2 mm 6 mps 741 mmHg 72%
    12:00 +23°C° 0.3 mm 6 mps 741 mmHg 72%
    13:00 +23°C° 0.3 mm 6 mps 741 mmHg 72%
    14:00 +23°C° 0.3 mm 6 mps 741 mmHg 72%
    15:00 +24°C° 0 mm 6 mps 741 mmHg 71%
    16:00 +24°C° 0 mm 6 mps 741 mmHg 69%
    17:00 +24°C° 0 mm 6 mps 740 mmHg 68%
    18:00 +23°C° 0 mm 6 mps 740 mmHg 71%
    19:00 +22°C° 0 mm 5 mps 741 mmHg 73%
    20:00 +21°C° 0 mm 5 mps 741 mmHg 76%
    21:00 +20°C° 0 mm 5 mps 741 mmHg 76%
    22:00 +20°C° 0 mm 5 mps 741 mmHg 76%
    23:00 +20°C° 0 mm 5 mps 741 mmHg 76%

    Pasado mañana, 29 Mayo, Miércoles

    Tiempo Temperatura Precipitaciones Viento Presión Humedad
    00:00 +19°C° 0 mm 5 mps 741 mmHg 79%
    01:00 +19°C° 0 mm 5 mps 741 mmHg 81%
    02:00 +17°C° 0 mm 5 mps 741 mmHg 84%
    03:00 +17°C° 0 mm 5 mps 741 mmHg 85%
    04:00 +17°C° 0 mm 5 mps 741 mmHg 86%
    05:00 +17°C° 0 mm 5 mps 741 mmHg 86%
    06:00 +19°C° 0 mm 6 mps 741 mmHg 82%
    07:00 +20°C° 0 mm 6 mps 742 mmHg 77%
    08:00 +21°C° 0 mm 7 mps 742 mmHg 72%
    09:00 +22°C° 0 mm 7 mps 742 mmHg 70%
    10:00 +23°C° 0 mm 7 mps 742 mmHg 68%
    11:00 +24°C° 0 mm 7 mps 742 mmHg 65%
    12:00 +24°C° 0 mm 6 mps 742 mmHg 67%
    13:00 +23°C° 0 mm 6 mps 742 mmHg 69%
    14:00 +23°C° 0 mm 5 mps 742 mmHg 70%
    15:00 +23°C° 0 mm 5 mps 742 mmHg 72%
    16:00 +23°C° 0 mm 5 mps 742 mmHg 73%
    17:00 +23°C° 0 mm 4 mps 742 mmHg 75%
    18:00 +22°C° 0.9 mm 4 mps 742 mmHg 79%
    19:00 +21°C° 0.9 mm 4 mps 742 mmHg 83%
    20:00 +20°C° 0.9 mm 4 mps 742 mmHg 87%
    21:00 +19°C° 1.3 mm 4 mps 742 mmHg 89%
    22:00 +19°C° 1.3 mm 3 mps 743 mmHg 92%
    23:00 +18°C° 1.3 mm 2 mps 743 mmHg 94%

    30 Mayo, Jueves

    Tiempo Temperatura Precipitaciones Viento Presión Humedad
    00:00 +18°C° 0 mm 2 mps 743 mmHg 94%
    01:00 +18°C° 0 mm 3 mps 743 mmHg 95%
    02:00 +18°C° 0 mm 3 mps 743 mmHg 95%
    03:00 +18°C° 0.1 mm 2 mps 743 mmHg 95%
    04:00 +18°C° 0.1 mm 2 mps 743 mmHg 96%
    05:00 +18°C° 0.1 mm 2 mps 743 mmHg 96%
    06:00 +19°C° 0.1 mm 2 mps 743 mmHg 94%
    07:00 +21°C° 0.1 mm 1 mps 744 mmHg 91%
    08:00 +21°C° 0.1 mm 1 mps 744 mmHg 88%
    09:00 +22°C° 0.8 mm 1 mps 744 mmHg 84%
    10:00 +23°C° 0.8 mm 1 mps 744 mmHg 81%
    11:00 +24°C° 0.8 mm 1 mps 744 mmHg 77%
    12:00 +24°C° 0.8 mm 1 mps 744 mmHg 76%
    13:00 +25°C° 0.8 mm 2 mps 744 mmHg 74%
    14:00 +25°C° 0.8 mm 2 mps 744 mmHg 73%
    15:00 +24°C° 1.1 mm 1 mps 744 mmHg 77%
    16:00 +24°C° 1.1 mm 1 mps 744 mmHg 81%
    17:00 +23°C° 1.1 mm 1 mps 744 mmHg 85%
    18:00 +22°C° 0.7 mm 1 mps 744 mmHg 87%
    19:00 +21°C° 0.7 mm 1 mps 744 mmHg 89%
    20:00 +20°C° 0.7 mm 1 mps 744 mmHg 91%
    21:00 +19°C° 0 mm 1 mps 744 mmHg 92%
    22:00 +18°C° 0 mm 1 mps 744 mmHg 94%
    23:00 +18°C° 0 mm 1 mps 744 mmHg 95%

    31 Mayo, Viernes

    Tiempo Temperatura Precipitaciones Viento Presión Humedad
    00:00 +16°C° 0 mm 1 mps 744 mmHg 95%
    01:00 +16°C° 0 mm 1 mps 744 mmHg 96%
    02:00 +16°C° 0 mm 1 mps 744 mmHg 96%
    03:00 +16°C° 0 mm 1 mps 744 mmHg 96%
    04:00 +18°C° 0 mm 1 mps 744 mmHg 96%
    05:00 +18°C° 0 mm 1 mps 744 mmHg 96%
    06:00 +19°C° 0 mm 1 mps 744 mmHg 92%
    07:00 +21°C° 0 mm 1 mps 744 mmHg 88%
    08:00 +21°C° 0 mm 2 mps 744 mmHg 85%
    09:00 +24°C° 0.4 mm 3 mps 744 mmHg 79%
    10:00 +25°C° 0.4 mm 3 mps 743 mmHg 73%
    11:00 +26°C° 0.4 mm 4 mps 743 mmHg 67%
    12:00 +26°C° 0.6 mm 5 mps 743 mmHg 68%
    13:00 +26°C° 0.6 mm 5 mps 743 mmHg 70%
    14:00 +26°C° 0.6 mm 5 mps 743 mmHg 71%
    15:00 +26°C° 0.5 mm 4 mps 742 mmHg 76%
    16:00 +25°C° 0.5 mm 4 mps 742 mmHg 80%
    17:00 +24°C° 0.5 mm 3 mps 742 mmHg 84%
    18:00 +22°C° 0 mm 3 mps 742 mmHg 87%
    19:00 +21°C° 0 mm 3 mps 742 mmHg 89%
    20:00 +20°C° 0 mm 3 mps 742 mmHg 92%
    21:00 +20°C° 1.1 mm 3 mps 742 mmHg 92%
    22:00 +20°C° 1.1 mm 3 mps 742 mmHg 93%
    23:00 +19°C° 1.1 mm 3 mps 742 mmHg 93%

    1 Junio, Sábado

    Tiempo Temperatura Precipitaciones Viento Presión Humedad
    00:00 +19°C° 0.4 mm 3 mps 741 mmHg 94%
    01:00 +18°C° 0.4 mm 3 mps 741 mmHg 94%
    02:00 +18°C° 0.4 mm 3 mps 741 mmHg 94%
    03:00 +18°C° 0 mm 2 mps 741 mmHg 94%
    04:00 +18°C° 0 mm 2 mps 741 mmHg 95%
    05:00 +18°C° 0 mm 2 mps 742 mmHg 95%
    06:00 +19°C° 0.2 mm 2 mps 742 mmHg 94%
    07:00 +19°C° 0.2 mm 2 mps 742 mmHg 94%
    08:00 +19°C° 0.2 mm 2 mps 743 mmHg 93%
    09:00 +19°C° 1.3 mm 3 mps 743 mmHg 93%
    10:00 +18°C° 1.3 mm 4 mps 744 mmHg 94%
    11:00 +16°C° 1.3 mm 5 mps 744 mmHg 94%
    12:00 +16°C° 1.6 mm 5 mps 744 mmHg 93%
    13:00 +15°C° 1.6 mm 5 mps 745 mmHg 93%
    14:00 +15°C° 1.6 mm 5 mps 745 mmHg 92%
    15:00 +15°C° 0.4 mm 5 mps 745 mmHg 91%
    16:00 +15°C° 0.4 mm 4 mps 745 mmHg 89%
    17:00 +14°C° 0.4 mm 4 mps 745 mmHg 88%
    18:00 +14°C° 0 mm 4 mps 746 mmHg 86%
    19:00 +13°C° 0 mm 4 mps 746 mmHg 84%
    20:00 +13°C° 0 mm 3 mps 747 mmHg 82%
    21:00 +12°C° 0.2 mm 4 mps 747 mmHg 81%
    22:00 +10°C° 0.2 mm 5 mps 748 mmHg 81%
    23:00 +9°C° 0.2 mm 5 mps 748 mmHg 80%
    Mostrar más